Starlink 35154

operational
NORAD ID: 65612 Int'l Des: 2025-207 Owner: SPXS Country: US Constellation: starlink
NOTLE

Über Starlink 35154

Beschreibung wird geladen...

Live-Position

3D-Globus wird geladen...

Nächste Überflüge

Höhenverlauf

Altitude vs Time

uPlot chart will show altitude changes over time

Zweizeiliger Elementsatz

1 65612U 25207W 25354.58336806 -.01532661 00000-0 -64313-1 0 9998
2 65612 97.6029 60.6499 0001829 74.7209 4.7175 15.26510219 5896
Epoch: 20. Dez. 2025 • Age: 9 hours

Aktueller Status

Höhe 502.6 km
Geschwindigkeit 7.62 km/s
Subsatellitenpunkt 82.10°N, 128.08°W
Startdatum 13. Sept. 2025
Alter 0.2 years
Typ internet

Technische Details

Klassifizierung Payload
Masse 575.00 kg
Trockenmasse 530.00 kg
Gesamtmasse 575.00 kg
Länge 0.30 m
Durchmesser 4.10 m
Spannweite 29.00 m
Form Box + pan
Hersteller SPXS
Bus-Typ Starlink V2MO
Phasenstatus In Orbit
Besitzer/Staat SPXS/US

Große Konstellationen

Loading constellations...